Regional Weather Roundup
Issued by NWS Newport/Morehead, NC

Current Version | Previous Version | Graphics & Text | Print | Product List | Glossary Off
Versions: 1 2 3 4 5 6 7 8 9 10 11 12 13 14 15 16 17 18 19 20 21 22 23 24 25 26 27 28 29 30 31 32 33 34 35 36 37 38 39 40 41 42 43 44 45 46 47 48 49 50

000
ASUS42 KMHX 290922
RWRMHX
WEATHER ROUNDUP FOR EASTERN NORTH CAROLINA
NATIONAL WEATHER SERVICE NEWPORT/MOREHEAD CITY NC
500 AM EDT TUE JUL 29 2014

NOTE: "FAIR" INDICATES FEW OR NO CLOUDS BELOW 12,000 FEET
WITH NO SIGNIFICANT WEATHER AND/OR OBSTRUCTIONS TO VISIBILITY

NCZ015>017-031-032-045>047-102-103-291000-
NORTH COAST

CITY           SKY/WX    TMP DP  RH WIND       PRES   REMARKS
EDENTON        PTCLDY    66  60  79 N6        29.87R
ELIZABETH CITY CLEAR     70  60  70 N8        29.86R
KITTY HAWK     SUNNY     72  63  72 NW3       29.84R
MANTEO         NOT AVBL

$$

NCZ045>047-081-094-103-104-291000-
CENTRAL COAST

CITY           SKY/WX    TMP DP  RH WIND       PRES   REMARKS
FRISCO         MOCLDY    78  63  59 NE3       29.85R
SWANQUARTER      N/A     70 N/A N/A NE3       29.82S

$$

NCZ095-097-098-100-101-291000-
SOUTHERN COAST

CITY           SKY/WX    TMP DP  RH WIND       PRES   REMARKS
BEAUFORT       MOCLDY    73  65  75 NW9       29.87R
CEDAR ISLAND     N/A     77 N/A N/A N12G18    29.91R
JACKSONVILLE   PTCLDY    71  63  75 N7        29.86R
NEWPORT        NOT AVBL
PINEY ISLAND   MOSUNNY   76  68  76 N6        29.86R
WILMINGTON     PTCLDY    71  63  75 NE8       29.85S


$$

NCZ011>013-027>030-043-044-078>080-089-090>093-098-291000-
COASTAL PLAIN

CITY           SKY/WX    TMP DP  RH WIND       PRES   REMARKS
AHOSKIE        CLEAR     61  59  94 CALM      29.89R
CLINTON        CLOUDY    70  64  80 CALM      29.89R
ELIZABETHTOWN  PTCLDY    68  64  85 CALM      29.88S
GOLDSBORO      MOCLDY    70  62  77 N2        29.88R
GREENVILLE     CLOUDY    68  61  77 N3        29.90R
HAVELOCK       MOCLDY    72  62  71 N12       29.86R
KENANSVILLE    PTCLDY    66  61  82 CALM      29.90R
KINSTON        CLEAR     67  63  86 CALM      29.90R
NEW BERN       PTCLDY    70  62  76 CALM      29.88R
RICHLANDS      PTCLDY    66  61  82 NW3       29.87S
ROANOKE RAPIDS NOT AVBL
ROCKY MOUNT    MOCLDY    67  58  72 NW5       29.89R
WASHINGTON     MOCLDY    67  60  76 CALM      29.88R
WHITEVILLE     MOCLDY    70  64  80 CALM      29.87R

$$

AMZ130-135-150-152-154-156-158-170-250-252-270-ANZ085-086-088-633-658-670-291000-
MARINE OBSERVATIONS

STATION/POSITION TIME  TEMP    WIND        PRES    WAVE   SWELL
                       AIR SEA DIR/SP/G            HT/PER HT/PER
                 (UTC) (F)     (DEG/KT/KT) (MB)    (FT/S) (FT/S)
CHESAPEAKE LIGHT NOT AVBL
BUOY 44014       0900   76 78  340/ 12/ 16 1009.6    3/ 4   2/ 8
DUCK             0900   71 69  330/ 10/ 12 1010.2
2E DUCK          0900                        N/A     2/ 4
OREGON INLET     0900   74 79  350/  7/ 11 1010.6
BUOY 44095       0900      78                N/A     3/ 8
20E OREGON INLET NOT AVBL
HATTERAS CG      0900   79 82   10/  7/ 11 1011.3
DIAMOND BUOY     0900          VRB  6/  8  1010.4    3/ 7   3/ 7
CAPE LOOKOUT     0900   76     360/  9/ 11 1010.3
BEAUFORT LAB     0900   74 82   40/  7/ 11 1010.5
30 SE NEW RIVER  0900   80 81   20/ 16/ 17 1010.6    4/ 6   3/ 6
5 SE WRIGHTSVILL 0900   75 82   30/ 19/ 23   N/A
BUOY 41002       0755   82 81  240/ 17/ 21 1012.8    6/ 7   2/10
BUOY 41004       0900   83 84   10/ 14/ 16 1008.9    4/ 6   2/ 6

$$


USA.gov is the U.S. government's official web portal to all federal, state and local government web resources and services.